This is the latest recevied weather packets stored in our database for station/object IR4UCA-3. If no packets are shown the sender has not sent any weather packets the latest 10 day(s).
| Time | Temp. | Humidity | Pressure | Rain* | Wind** | Luminosity | Snow |
|---|---|---|---|---|---|---|---|
| 1778042101 | 14.44° C | 91% | 1009.8 hPa | 5.59 mm | - | - | - |
| 1778041982 | 14.44° C | 91% | 1009.7 hPa | 5.33 mm | - | - | - |
| 1778041861 | 14.44° C | 91% | 1009.4 hPa | 5.33 mm | - | - | - |
| 1778041744 | 14.44° C | 91% | 1009.4 hPa | 5.08 mm | - | - | - |
| 1778041620 | 14.44° C | 91% | 1009.6 hPa | 5.08 mm | - | - | - |
| 1778041497 | 14.44° C | 91% | 1009.7 hPa | 4.83 mm | - | - | - |
| 1778041379 | 14.44° C | 91% | 1009.9 hPa | 4.32 mm | - | - | - |
| 1778041257 | 14.44° C | 90% | 1010 hPa | 4.32 mm | - | - | - |
| 1778041136 | 14.44° C | 90% | 1010.1 hPa | 4.06 mm | - | - | - |
| 1778041009 | 14.44° C | 90% | 1010.1 hPa | 3.56 mm | - | - | - |
| 1778040888 | 14.44° C | 91% | 1010.2 hPa | 3.3 mm | - | - | - |
| 1778040770 | 14.44° C | 91% | 1010.3 hPa | 2.79 mm | - | - | - |
| 1778040647 | 14.44° C | 91% | 1010.3 hPa | 2.54 mm | - | - | - |
| 1778040523 | 14.44° C | 91% | 1010.2 hPa | 2.29 mm | - | - | - |
| 1778040412 | 14.44° C | 91% | 1010.2 hPa | 2.03 mm | - | - | - |
| 1778040287 | 14.44° C | 91% | 1010.1 hPa | 1.78 mm | - | - | - |
| 1778040167 | 14.44° C | 91% | 1010.1 hPa | 1.52 mm | - | - | - |
| 1778040062 | 14.44° C | 91% | 1010 hPa | 1.52 mm | - | - | - |
| 1778039921 | 14.44° C | 91% | 1010 hPa | 1.27 mm | - | - | - |
| 1778039805 | 14.44° C | 91% | 1010 hPa | 1.02 mm | - | - | - |
| 1778039682 | 14.44° C | 91% | 1009.9 hPa | 0.76 mm | - | - | - |
| 1778039562 | 14.44° C | 91% | 1009.9 hPa | 0.76 mm | - | - | - |
| 1778039436 | 14.44° C | 91% | 1009.9 hPa | 0.76 mm | - | - | - |
| 1778039311 | 14.44° C | 91% | 1010 hPa | 0.51 mm | - | - | - |
| 1778039196 | 14.44° C | 91% | 1009.9 hPa | 0.51 mm | - | - | - |
* Rain latest hour (hover to see other rain measurements)
** Current wind speed in m/s (hover to see current wind gust speed)